Istanbul, Turkey

12:11 PM +03 on May 25, 2017 (GMT +0300)
Ataturk

Weather History for LTBA - March, 2014

Change the Weather History Date:

Tuesday, March 18, 2014

  Actual Average Record
Temperature  
Mean Temperature 55 °F -  
Max Temperature 62 °F 56 °F 64 °F (2001)
Min Temperature 48 °F 43 °F 31 °F (2013)
Degree Days  
Heating Degree Days 10    
Growing Degree Days 5 (Base 50)    
Moisture  
Dew Point 45 °F    
Average Humidity 71    
Maximum Humidity 93    
Minimum Humidity 39    
Precipitation  
Precipitation 0.00 in - - ()
Sea Level Pressure  
Sea Level Pressure 30.06 in    
Wind  
Wind Speed 6 mph ()    
Max Wind Speed 12 mph    
Max Gust Speed -    
Visibility 5.9 miles    
Events      
Averages and records for this station are not official NWS values.
T = Trace of Precipitation, MM = Missing Value Source: Averaged Metar Reports

Daily Weather History Graph

Daily Weather History Graph

Search for Another Location

Airport or City:

Trip Planner

Search our weather history database for the weather conditions in past years. The results will help you decide how hot, cold, wet, or windy it might be!

Date:

Astronomy

Mar. 18, 2014 Rise Set
Actual Time 6:11 AM EET 6:14 PM EET
Civil Twilight 5:44 AM EET 6:41 PM EET
Nautical Twilight 5:12 AM EET 7:13 PM EET
Astronomical Twilight 4:40 AM EET 7:46 PM EET
Moon 8:12 PM EET (3/18) 6:49 AM EET (3/18)
Length of Visible Light 12h 57m
Length of Day
12h 02m
Full, 97% of the Moon is Illuminated
Mar 18
Full
Mar 24
Last Quarter
Mar 30
New
Apr 7
First Quarter
Apr 15
Full

Hourly Weather History & Observations

Time (EET) Temp. Dew Point Humidity Pressure Visibility Wind Dir Wind Speed Gust Speed Precip Events Conditions
12:20 AM 48.2 °F 46.4 °F 93% 30.04 in - WSW 5.8 mph - N/A   Clear
12:50 AM 50.0 °F 46.4 °F 87% 30.04 in - West 4.6 mph - N/A   Clear
1:20 AM 50.0 °F 46.4 °F 87% 30.04 in - WSW 6.9 mph - N/A   Clear
1:50 AM 50.0 °F 46.4 °F 87% 30.04 in - WSW 8.1 mph - N/A   Clear
2:00 AM 50 °F 46 °F 83% 30.05 in 6 mi WSW 8.1 mph - -  
2:20 AM 50.0 °F 46.4 °F 87% 30.04 in - WSW 6.9 mph - N/A   Clear
2:50 AM 48.2 °F 46.4 °F 93% 30.04 in - SW 6.9 mph - N/A   Clear
3:20 AM 50.0 °F 46.4 °F 87% 30.01 in - SW 6.9 mph - N/A   Clear
3:50 AM 48.2 °F 46.4 °F 93% 30.01 in - SW 5.8 mph - N/A   Clear
4:20 AM 48.2 °F 44.6 °F 87% 30.01 in - WSW 5.8 mph - N/A   Clear
4:50 AM 48.2 °F 46.4 °F 93% 30.04 in - WSW 4.6 mph - N/A   Clear
5:20 AM 48.2 °F 44.6 °F 87% 30.04 in 4.3 mi SW 6.9 mph - N/A   Unknown
5:50 AM 48.2 °F 46.4 °F 93% 30.04 in 4.3 mi SW 9.2 mph - N/A   Unknown
6:20 AM 50.0 °F 44.6 °F 82% 30.04 in - SSW 11.5 mph - N/A   Clear
6:50 AM 50.0 °F 44.6 °F 82% 30.04 in - SW 9.2 mph - N/A   Clear
7:20 AM 51.8 °F 46.4 °F 82% 30.04 in - WSW 8.1 mph - N/A   Clear
7:50 AM 51.8 °F 46.4 °F 82% 30.04 in - WSW 9.2 mph - N/A   Clear
8:20 AM 50.0 °F 46.4 °F 87% 30.04 in - WSW 9.2 mph - N/A   Clear
8:50 AM 53.6 °F 46.4 °F 77% 30.06 in - SW 9.2 mph - N/A   Clear
9:20 AM 53.6 °F 46.4 °F 77% 30.06 in - SW 9.2 mph - N/A   Clear
9:50 AM 53.6 °F 46.4 °F 77% 30.06 in - SW 11.5 mph - N/A   Clear
10:20 AM 55.4 °F 48.2 °F 77% 30.06 in - SW 9.2 mph - N/A   Clear
10:50 AM 55.4 °F 48.2 °F 77% 30.09 in - SW 9.2 mph - N/A   Clear
11:00 AM 56 °F 48 °F 66% 30.09 in 6 mi SW 9.2 mph - -  
11:20 AM 55.4 °F 46.4 °F 72% 30.09 in - SW 9.2 mph - N/A   Clear
11:50 AM 55.4 °F 46.4 °F 72% 30.06 in - SSW 9.2 mph - N/A   Clear
12:20 PM 57.2 °F 46.4 °F 67% 30.06 in - SSW 9.2 mph - N/A   Clear
12:50 PM 59.0 °F 46.4 °F 63% 30.06 in - SSW 8.1 mph - N/A   Clear
1:20 PM 59.0 °F 46.4 °F 63% 30.06 in - SW 6.9 mph - N/A   Clear
1:50 PM 59.0 °F 46.4 °F 63% 30.06 in 6.2 mi SW 6.9 mph - N/A   Partly Cloudy
2:00 PM 59 °F 45 °F 50% 30.08 in 6 mi SW 6.9 mph - -   Scattered Clouds
2:20 PM 57.2 °F 46.4 °F 67% 30.06 in 6.2 mi SW 6.9 mph - N/A   Mostly Cloudy
2:50 PM 59.0 °F 46.4 °F 63% 30.06 in 6.2 mi SW 6.9 mph - N/A   Scattered Clouds
3:20 PM 59.0 °F 44.6 °F 59% 30.06 in 6.2 mi WSW 6.9 mph - N/A   Scattered Clouds
3:50 PM 60.8 °F 44.6 °F 55% 30.06 in 6.2 mi SW 6.9 mph - N/A   Scattered Clouds
4:20 PM 60.8 °F 46.4 °F 59% 30.06 in 6.2 mi Variable 2.3 mph - N/A   Scattered Clouds
4:50 PM 60.8 °F 42.8 °F 52% 30.06 in 6.2 mi Variable 2.3 mph - N/A   Partly Cloudy
5:00 PM 61 °F 42 °F 39% 30.07 in 6 mi SSW 2.3 mph - -   Scattered Clouds
5:20 PM 62.6 °F 42.8 °F 48% 30.06 in - Calm Calm - N/A   Clear
5:50 PM 59.0 °F 44.6 °F 59% 30.06 in - SSE 2.3 mph - N/A   Clear
6:20 PM 57.2 °F 44.6 °F 63% 30.06 in - Variable 2.3 mph - N/A   Clear
6:50 PM 55.4 °F 44.6 °F 67% 30.06 in - Variable 2.3 mph - N/A   Clear
7:20 PM 55.4 °F 42.8 °F 63% 30.09 in - East 3.5 mph - N/A   Clear
7:50 PM 57.2 °F 42.8 °F 59% 30.09 in - Variable 4.6 mph - N/A   Clear
8:00 PM 57 °F 43 °F 50% 30.11 in 6 mi ESE 4.6 mph - -  
8:20 PM 59.0 °F 42.8 °F 55% 30.09 in - East 5.8 mph - N/A   Clear
8:50 PM 59.0 °F 42.8 °F 55% 30.09 in - East 5.8 mph - N/A   Clear
9:20 PM 53.6 °F 42.8 °F 67% 30.09 in - Variable 2.3 mph - N/A   Clear
9:50 PM 55.4 °F 42.8 °F 63% 30.09 in - East 4.6 mph - N/A   Clear
10:20 PM 55.4 °F 42.8 °F 63% 30.09 in - East 4.6 mph - N/A   Clear
10:50 PM 57.2 °F 42.8 °F 59% 30.09 in - East 3.5 mph - N/A   Clear
11:00 PM 56 °F 43 °F 51% 30.12 in 6 mi East 3.5 mph - -  
11:20 PM 55.4 °F 42.8 °F 63% 30.09 in - East 3.5 mph - N/A   Clear
11:50 PM 55.4 °F 42.8 °F 63% 30.09 in - East 3.5 mph - N/A   Clear